| time (UTC) | temp F | wind direction | speed MPH | gust MPH | rain 1hr in | rain 24hr in | rain mn in | humidity % | barometer mb |
| 20260504011534 | 55 | 346 | 0.0 | 1.0 | 0.00 | 0.00 | 0.00 | 73 | 1010.4 |
| 20260504010036 | 56 | 307 | 0.0 | 1.0 | 0.00 | 0.00 | 0.00 | 72 | 1010.2 |
| 20260504004536 | 56 | 298 | 0.0 | 2.0 | 0.00 | 0.00 | 0.00 | 70 | 1010.0 |
| 20260504003036 | 57 | 294 | 0.0 | 8.0 | 0.00 | 0.00 | 0.00 | 69 | 1009.8 |
| 20260504001532 | 58 | 309 | 0.0 | 8.0 | 0.00 | 0.00 | 0.00 | 68 | 1009.8 |
| 20260504000031 | 59 | 291 | 0.0 | 5.0 | 0.00 | 0.00 | 0.00 | 67 | 1009.8 |
| 20260503234539 | 59 | 267 | 0.0 | 8.0 | 0.00 | 0.00 | 0.00 | 68 | 1009.3 |
| 20260503233030 | 59 | 273 | 0.0 | 3.0 | 0.00 | 0.00 | 0.00 | 67 | 1009.5 |
| 20260503231533 | 59 | 323 | 0.0 | 2.0 | 0.00 | 0.00 | 0.00 | 67 | 1009.6 |
| 20260503230039 | 60 | 297 | 0.0 | 3.0 | 0.00 | 0.00 | 0.00 | 66 | 1009.6 |
| 20260503224528 | 60 | 316 | 0.0 | 0.0 | 0.00 | 0.00 | 0.00 | 65 | 1009.6 |
| 20260503223029 | 61 | 332 | 1.0 | 10.0 | 0.00 | 0.00 | 0.00 | 65 | 1009.5 |
| 20260503221528 | 62 | 312 | 0.0 | 10.0 | 0.00 | 0.00 | 0.00 | 62 | 1009.6 |
| 20260503220028 | 64 | 269 | 0.0 | 1.0 | 0.00 | 0.00 | 0.00 | 61 | 1009.7 |
| 20260503214528 | 64 | 300 | 0.0 | 1.0 | 0.00 | 0.00 | 0.00 | 60 | 1009.6 |
| 20260503213026 | 63 | 303 | 0.0 | 0.0 | 0.00 | 0.00 | 0.00 | 62 | 1009.9 |
| 20260503211525 | 63 | 286 | 0.0 | 2.0 | 0.00 | 0.00 | 0.00 | 63 | 1009.8 |
| 20260503210027 | 63 | 323 | 0.0 | 0.0 | 0.00 | 0.00 | 0.00 | 62 | 1009.8 |
| 20260503204533 | 64 | 360 | 0.0 | 2.0 | 0.00 | 0.00 | 0.00 | 61 | 1010.0 |
| 20260503203025 | 65 | 355 | 0.0 | 9.0 | 0.00 | 0.00 | 0.00 | 61 | 1010.1 |
| 20260503201523 | 66 | 306 | 0.0 | 8.0 | 0.00 | 0.00 | 0.00 | 60 | 1010.1 |
| 20260503200026 | 68 | 333 | 0.0 | 11.0 | 0.00 | 0.00 | 0.00 | 58 | 1010.0 |
| 20260503194525 | 69 | 332 | 0.0 | 15.0 | 0.00 | 0.00 | 0.00 | 56 | 1009.9 |
| 20260503193032 | 71 | 247 | 0.0 | 6.0 | 0.00 | 0.00 | 0.00 | 53 | 1009.9 |
| 20260503191522 | 72 | 261 | 0.0 | 1.0 | 0.00 | 0.00 | 0.00 | 49 | 1009.8 |
| 20260503190024 | 73 | 327 | 0.0 | 1.0 | 0.00 | 0.00 | 0.00 | 50 | 1009.8 |
| 20260503184533 | 73 | 279 | 0.0 | 0.0 | 0.00 | 0.00 | 0.00 | 43 | 1009.8 |
| 20260503183019 | 72 | 234 | 0.0 | 0.0 | 0.00 | 0.00 | 0.00 | 51 | 1009.8 |
| 20260503181516 | 71 | 344 | 0.0 | 0.0 | 0.00 | 0.00 | 0.00 | 49 | 1009.8 |
| 20260503180023 | 71 | 313 | 0.0 | 6.0 | 0.00 | 0.00 | 0.00 | 53 | 1009.8 |
| 20260503174514 | 71 | 306 | 0.0 | 0.0 | 0.00 | 0.00 | 0.00 | 53 | 1009.9 |
| 20260503173015 | 70 | 339 | 0.0 | 5.0 | 0.00 | 0.00 | 0.00 | 52 | 1009.9 |
| 20260503171509 | 69 | 225 | 0.0 | 0.0 | 0.00 | 0.00 | 0.00 | 52 | 1009.9 |
| 20260503081551 | 53 | 99 | 0.0 | 0.0 | 0.00 | 0.00 | 0.00 | 46 | 1010.4 |
| 20260503071547 | 53 | 98 | 0.0 | 0.0 | 0.00 | 0.00 | 0.00 | 44 | 1011.2 |
| 20260503054540 | 54 | 56 | 0.0 | 0.0 | 0.00 | 0.00 | 0.00 | 46 | 1011.4 |
| 20260503053041 | 54 | 55 | 0.0 | 0.0 | 0.00 | 0.00 | 0.00 | 46 | 1011.4 |
| 20260503051538 | 54 | 51 | 0.0 | 0.0 | 0.00 | 0.00 | 0.00 | 48 | 1011.2 |
| 20260503050038 | 54 | 51 | 0.0 | 0.0 | 0.00 | 0.00 | 0.00 | 51 | 1011.2 |
| 20260503044538 | 54 | 309 | 0.0 | 0.0 | 0.00 | 0.00 | 0.00 | 54 | 1011.1 |
| 20260503043042 | 54 | 309 | 0.0 | 0.0 | 0.00 | 0.00 | 0.00 | 53 | 1010.9 |
| 20260503041537 | 55 | 309 | 0.0 | 0.0 | 0.00 | 0.00 | 0.00 | 48 | 1010.6 |
| 20260503040045 | 56 | 309 | 0.0 | 0.0 | 0.00 | 0.00 | 0.00 | 46 | 1010.4 |
| 20260503034549 | 57 | 309 | 0.0 | 0.0 | 0.00 | 0.00 | 0.00 | 48 | 1010.2 |
| 20260503033042 | 59 | 309 | 0.0 | 0.0 | 0.00 | 0.00 | 0.00 | 54 | 1010.0 |
| 20260503031540 | 61 | 309 | 0.0 | 0.0 | 0.00 | 0.00 | 0.00 | 57 | 1010.0 |
| 20260503030046 | 63 | 309 | 0.0 | 0.0 | 0.00 | 0.00 | 0.00 | 54 | 1010.0 |
| 20260503024534 | 65 | 309 | 0.0 | 0.0 | 0.00 | 0.00 | 0.00 | 53 | 1009.9 |
| 20260503023034 | 67 | 309 | 0.0 | 0.0 | 0.00 | 0.00 | 0.00 | 51 | 1009.8 |
| 20260503021541 | 68 | 309 | 0.0 | 0.0 | 0.00 | 0.00 | 0.00 | 49 | 1009.8 |
| 20260503020033 | 69 | 309 | 0.0 | 0.0 | 0.00 | 0.00 | 0.00 | 46 | 1009.8 |
| 20260503014533 | 70 | 309 | 0.0 | 0.0 | 0.00 | 0.00 | 0.00 | 47 | 1009.7 |
| 20260503013032 | 70 | 309 | 0.0 | 0.0 | 0.00 | 0.00 | 0.00 | 49 | 1009.6 |